Location: Pescara
(42.4765°N, 14.1734°E)
Time: 09:40:50
(UTC+01:00)

ISS - Visible Passes

Search period start: 17 January 2019 00:00
Search period end: 27 January 2019 00:00
Orbit: 404 x 407 km, 51.6° (Epoch: 17 January)

Date Brightness Start Highest point End Pass type
(mag) Time Alt. Az. Time Alt. Az. Time Alt. Az.
21 Jan -2.2 18:42:16 10° SSW 18:44:18 23° SSE 18:44:18 23° SSE visible
22 Jan -1.7 17:51:29 10° SSE 17:53:17 14° SE 17:54:51 11° E visible
22 Jan -1.5 19:26:07 10° WSW 19:27:33 24° WSW 19:27:33 24° WSW visible
23 Jan -3.8 18:34:13 10° SW 18:37:26 62° SE 18:38:01 50° E visible
24 Jan -2.8 17:42:36 10° SSW 17:45:34 32° SE 17:48:24 11° ENE visible
24 Jan -1.9 19:18:57 10° W 19:21:05 29° WNW 19:21:05 29° WNW visible
25 Jan -3.5 18:26:43 10° WSW 18:29:58 58° NNW 18:31:23 29° NE visible
26 Jan -3.8 17:34:41 10° SW 17:37:57 79° SE 17:41:14 10° ENE visible
26 Jan -1.8 19:12:01 10° WNW 19:14:18 22° NNW 19:14:18 22° NNW visible
